Flag for Germany Weather past 2 weeks in Königs Wusterhausen, Brandenburg, Germany

Now
63 °F

Clear.


Feels Like: 63 °F
Forecast: 63 / 73 °F
Wind: 9 mph from Northeast

Location: Berlin-Schoenefeld

Current Time: Jul 24, 2014 at 4:01:40 AM

Latest Report: Jul 24, 2014 at 3:20 AM


Visibility: 10 mi

Pressure: 30.01 "Hg

Humidity: 77%

Dew point: 55 °F

Location of Königs WusterhausenLocation

Historic Weather in Königs Wusterhausen — Graph

°F

Königs Wusterhausen temperature yesterday

Maximum temperature yesterday: 84 °F (at 5:20 PM)
Minimum temperature yesterday: 63 °F (at 11:50 PM)
Average temperature yesterday: 73 °F

Past Weeks' High & Low Weather Summary

 TemperatureHumidityPressure
High93 °F (Jul 20, 3:50 PM)100% (Jul 9, 2:20 AM)30.18 "Hg (Jul 9, 2:20 AM)
Low54 °F (Jul 13, 4:20 AM)24% (Jul 20, 3:50 PM)29.56 "Hg (Jul 9, 6:50 AM)
Average72 °F65%29.93 "Hg
* Reported Jul 9 2:20 AM — Jul 24 2:50 AM, Königs Wusterhausen, Weather by CustomWeather, © 2014

Note: Actual official high and low records may vary slightly from our data, if they occured in-between our weather recording intervals... More about our weather records

Advertising

Königs Wusterhausen weather history for previous 24 hours

 ConditionsComfort  
Time TempWeatherWind HumidityBarometerVisibility
2:50 AM
Jul 24
63 °FClear.8 mph73%30.01 "Hg10 mi
2:20 AM63 °FClear.9 mph77%30.04 "Hg10 mi
1:50 AM63 °FClear.8 mph77%30.04 "Hg10 mi
1:20 AM63 °FClear.7 mph77%30.04 "Hg10 mi
12:50 AM63 °FClear.7 mph77%30.04 "Hg10 mi
12:20 AM63 °FClear.9 mph77%30.04 "Hg10 mi
11:50 PM
Jul 23
63 °FClear.7 mph77%30.04 "Hg10 mi
11:20 PM64 °FClear.5 mph68%30.04 "Hg10 mi
10:50 PM64 °FClear.5 mph68%30.04 "Hg10 mi
10:20 PM66 °FClear.6 mph64%30.04 "Hg10 mi
9:50 PM68 °FSprinkles. Scattered clouds.7 mph60%30.04 "HgN/A
9:20 PM70 °FSunny.17 mph57%30.04 "Hg10 mi
8:50 PM72 °FSunny.14 mph53%30.04 "Hg10 mi
8:20 PM75 °FSunny.18 mph47%30.01 "Hg10 mi
7:50 PM79 °FScattered clouds.20 mph37%29.98 "HgN/A
7:20 PM79 °FScattered clouds.23 mph39%29.98 "HgN/A
6:50 PM81 °FSunny.17 mph39%29.98 "Hg10 mi
6:20 PM81 °FSunny.18 mph37%29.98 "Hg10 mi
5:50 PM81 °FSunny.14 mph30%29.98 "Hg10 mi
5:20 PM84 °FSunny.14 mph27%29.98 "Hg10 mi
4:50 PM82 °FSunny.16 mph30%29.98 "Hg10 mi
4:20 PM82 °FSunny.13 mph30%30.01 "Hg10 mi
3:50 PM81 °FSunny.13 mph34%30.01 "Hg10 mi
3:20 PM82 °FSunny.14 mph32%30.01 "Hg10 mi
1:20 PM81 °FSunny.15 mph30%30.07 "Hg10 mi
12:50 PM82 °FSunny.12 mph28%30.07 "Hg10 mi
12:20 PM79 °FSunny.15 mph32%30.07 "Hg10 mi
11:50 AM79 °FSunny.13 mph39%30.07 "Hg10 mi
11:20 AM79 °FSunny.13 mph42%30.07 "Hg10 mi
10:20 AM77 °FSunny.10 mph47%30.09 "Hg10 mi
9:50 AM75 °FSunny.10 mph47%30.09 "Hg10 mi
7:50 AM68 °FSunny.12 mph69%30.09 "Hg10 mi
7:20 AM66 °FSunny.10 mph73%30.09 "Hg10 mi
6:50 AM66 °FSunny.9 mph73%30.09 "Hg10 mi
6:20 AM64 °FSunny.9 mph78%30.09 "Hg10 mi
5:50 AM64 °FClear.8 mph83%30.09 "Hg10 mi
5:20 AM64 °FClear.8 mph83%30.09 "Hg10 mi
4:50 AM64 °FClear.8 mph83%30.07 "Hg10 mi
4:20 AM64 °FClear.8 mph78%30.07 "Hg10 mi
Weather by CustomWeather, © 2014

See weather overviewHow to use our weather pages